• Join FlightAware (Why Join?)
  • Login
  • US Flag 
11:50PM EST


 

Airport Tracker/Info


-or-


 

Live Flight TrackerFlight Track Log ✈ N779NC ✈ 03-Jul-2013 ✈ KHSV - KATL

Flight Track Log - Related Links

Times and Time Zones

All times are in EDT time to prevent confusion due to time zone crossing. See the N779NC flight status page for this flight to view local times or setup timezone preferences in your user account.

Time Position Orientation Groundspeed Altitude Reporting Facility
EDT Latitude Longitude Course Direction KTS MPH feet Rate Location/Type
08:15PM 34.5106 -86.4691 90° East  Level Estimated
08:15PM 34.4750 -86.6133 109° East 266 306 8,300  Level Memphis Center
08:16PM 34.4789 -86.3928 109° East  Level Estimated
08:16PM 34.4594 -86.5456 106° East 266 306 9,600  Level Atlanta Center
08:17PM 34.4471 -86.3165 108° East  Level Estimated
08:17PM 34.4444 -86.4669 103° East 299 344 10,200  Level Atlanta Center
08:18PM 34.4488 -86.2113 89° East  Level FlightAware Approximate
08:18PM 34.4175 -86.3528 106° East 310 357 11,800  Level Atlanta Center
08:19PM 34.4076 -86.1187 109° East  Level Estimated
08:19PM 34.3925 -86.2389 105° East 330 380 13,900  Level Atlanta Center
08:20PM 34.3664 -86.0262 112° Southeast  Level Estimated
08:20PM 34.3675 -86.1175 104° East 351 404 15,400  Level Atlanta Center
08:21PM 34.3251 -85.9338 109° East  Level Estimated
08:21PM 34.3422 -85.9936 104° East 370 426 17,000  Level Atlanta Center
08:22PM 34.3233 -85.8597 100° East 382 440 18,900 1,950 Climbing Atlanta Center
08:23PM 34.3067 -85.7211 98° East 388 447 20,900 1,050 Climbing Atlanta Center
08:24PM 34.2833 -85.5875 102° East 400 460 21,000 -1,100 Climbing Atlanta Center
08:25PM 34.2556 -85.4714 106° East 400 460 18,700 -2,650 Descending Atlanta Center
08:26PM 34.2153 -85.3475 111° Southeast 400 460 15,700 -2,850 Descending Atlanta Center
08:27PM 34.1578 -85.2386 123° Southeast 387 445 13,000 -1,350 Descending Atlanta Center
08:28PM 34.1086 -85.1503 124° Southeast 353 406 13,000  Level Atlanta Center
08:29PM 34.0656 -85.0619 120° Southeast 312 359 13,000 -350 Level Atlanta Center
08:30PM 34.0244 -84.9811 122° Southeast 295 339 12,300 -1,200 Descending Atlanta Center
08:31PM 33.9686 -84.9231 139° Southeast 253 291 10,600 -1,350 Descending Atlanta Center
08:32PM 33.8997 -84.9172 176° South 243 280 9,600 -1,000 Descending Atlanta Center
08:33PM 33.8308 -84.9167 180° South 237 273 8,600 -850 Descending Atlanta Center
08:34PM 33.7725 -84.9133 177° South 219 252 7,900 -700 Descending Atlanta Center
08:35PM 33.7161 -84.9128 180° South 219 252 7,200 -450 Descending Atlanta Center
08:36PM 33.6556 -84.9122 180° South 219 252 7,000 -95 Descending Atlanta Center
08:37PM 33.6333 -84.8500 113° Southeast 187 215 7,000 -378 Level Atlanta TRACON
08:38PM 33.6333 -84.7833 90° East 201 231 6,200 -843 Descending Atlanta TRACON
08:39PM 33.6333 -84.7167 90° East 189 217 5,300 -1,000 Descending Atlanta TRACON
08:40PM 33.6333 -84.6500 90° East 191 220 4,200 -1,000 Descending Atlanta TRACON
08:41PM 33.6333 -84.6000 90° East 181 208 3,300 -900 Descending Atlanta TRACON